Wind_Speed
29 29 30 30 31 32 33 33 35 35 37 39 40 40 39 40 42 41 40 40 41 41 42 42 43 42 43 43 43 43 42 42 41 41 41 40 39 39 38 38 38 38 37 37
28 28 28 30 31 32 33 33 34 34 36 38 39 39 38 38 39 39 39 39 40 40 40 41 43 42 42 43 42 43 43 43 42 42 42 41 40 40 39 39 39 38 38 37
28 28 28 30 31 32 33 34 34 34 35 36 38 39 36 35 37 38 39 38 38 38 39 40 41 42 41 41 41 42 42 43 43 43 43 43 41 41 41 40 40 40 39 38
27 27 28 30 31 32 32 32 32 32 33 33 35 36 33 32 34 35 37 37 37 37 38 38 40 40 39 39 40 41 42 42 43 43 43 42 42 42 41 40 40 40 40 39
27 27 28 29 29 30 30 29 30 30 31 31 31 33 30 30 31 32 33 35 35 36 36 36 37 38 39 38 39 40 40 41 42 43 42 42 41 41 41 40 40 40 40 40
27 27 27 27 28 28 28 28 28 28 29 29 28 30 28 26 28 29 31 32 34 34 35 34 35 36 37 38 39 40 39 40 40 42 42 41 40 40 40 39 40 40 40 40
27 27 26 27 27 26 27 27 27 28 28 27 26 28 26 25 26 27 29 31 31 31 32 33 34 35 35 36 37 38 37 37 38 39 40 40 40 40 40 39 40 40 39 40
27 27 26 26 26 26 25 25 26 26 27 26 26 27 26 25 25 26 27 29 29 30 30 31 32 33 34 34 35 36 35 35 36 38 39 40 41 41 40 39 39 40 40 40
27 27 25 25 24 24 24 24 25 25 26 27 27 27 26 25 25 26 26 27 28 28 28 29 30 31 31 32 33 34 34 35 35 36 38 40 40 41 40 40 39 39 40 40
28 28 26 24 23 23 25 25 25 25 27 28 28 27 26 25 25 25 25 26 26 28 28 29 29 29 30 31 32 33 33 34 34 35 36 38 38 39 40 39 38 38 38 39
28 27 26 25 24 24 24 25 26 27 28 28 27 26 25 24 24 25 25 27 27 28 29 29 29 29 30 31 31 31 32 33 33 34 35 36 37 38 38 39 38 38 38 38
27 26 26 25 25 25 26 25 25 27 27 28 28 25 23 24 25 26 26 26 27 28 29 29 29 30 30 30 30 31 31 32 32 33 34 36 37 37 37 38 38 37 38 38
26 25 26 26 25 25 25 25 25 27 27 27 28 26 24 25 26 26 27 26 27 27 28 28 29 29 30 30 31 31 31 31 32 32 33 34 35 36 36 36 36 37 38 38
25 25 25 25 25 25 25 25 25 26 28 27 27 26 24 26 26 26 26 26 27 27 28 28 29 29 30 29 30 31 32 32 32 33 33 33 33 34 34 35 36 36 37 38
26 26 26 25 25 25 26 26 26 27 27 29 27 27 25 25 26 26 26 27 26 27 28 29 29 29 30 30 30 31 32 32 33 33 33 33 33 33 34 34 35 36 36 36
27 27 27 26 26 26 26 26 26 27 28 28 28 27 26 27 28 28 27 28 28 28 28 29 30 30 31 30 30 31 32 32 33 33 33 33 33 33 34 34 34 35 36 36
26 27 27 27 27 27 27 25 26 27 27 28 29 28 28 29 29 28 28 28 28 28 29 29 29 30 31 32 32 32 32 33 33 33 34 33 33 34 34 34 35 35 35 36
25 26 26 26 26 27 26 26 26 27 28 28 28 28 28 29 30 29 29 30 30 29 30 30 30 30 31 32 32 32 32 32 33 34 34 34 33 34 34 34 35 35 35 36
23 24 25 26 26 26 24 24 25 27 27 27 27 27 28 29 30 29 29 30 31 30 30 31 31 31 31 31 31 32 32 32 32 33 33 33 33 33 34 34 35 35 35 35
23 24 25 25 26 25 23 23 25 26 27 26 27 27 27 28 29 28 29 30 30 30 31 31 31 31 31 31 31 31 32 32 32 32 33 32 33 33 34 34 34 34 34 35
24 24 25 26 27 26 24 24 25 26 26 26 27 27 27 28 27 27 29 29 30 30 30 30 30 31 31 31 31 31 31 31 31 32 32 33 33 33 34 34 34 34 34 35
24 24 24 25 26 25 24 24 25 25 25 26 26 26 26 26 27 27 27 27 28 28 28 28 28 29 29 29 30 30 30 30 30 30 31 31 32 32 32 33 33 34 34 34
24 24 25 26 25 25 25 25 26 25 25 25 25 25 25 25 26 27 27 27 28 28 28 28 28 28 28 28 29 29 29 29 29 30 30 30 31 31 32 32 34 34 34 34
24 24 25 25 25 25 25 26 25 25 24 24 24 24 24 25 25 25 26 26 26 27 28 28 28 28 28 28 28 29 29 29 29 29 30 30 30 30 31 32 33 33 33 33
23 24 24 24 24 24 24 24 24 24 24 24 24 24 24 24 25 25 25 25 25 26 27 27 28 28 28 28 28 28 29 29 29 29 29 29 30 30 31 32 32 32 31 31
23 23 24 24 24 24 23 23 23 23 24 24 24 23 23 24 24 24 24 24 24 25 25 26 27 27 27 27 27 27 28 28 28 28 28 28 28 29 30 30 31 30 30 30
Wind_Direction
275 272 271 268 265 266 266 265 263 261 260 259 257 255 255 255 254 252 251 250 250 250 251 250 248 247 247 247 247 246 245 246 246 248 249 252 252 252 253 255 255 256 256 255
275 274 272 267 264 265 266 266 264 262 261 261 259 257 256 255 252 250 250 250 250 251 250 250 248 247 247 246 246 246 246 246 246 247 248 251 252 253 253 253 254 254 254 254
276 275 271 267 265 265 266 266 266 265 263 263 262 259 255 255 252 251 250 249 249 251 251 250 250 247 247 246 246 246 246 246 247 248 249 250 253 254 252 253 253 253 253 252
275 275 272 268 266 267 268 267 267 265 263 263 262 263 255 254 252 251 249 249 250 251 250 250 251 248 247 245 245 245 246 247 248 249 250 250 253 252 252 252 252 252 252 251
277 277 275 270 269 269 268 266 264 263 264 263 261 263 258 256 252 250 249 250 251 252 251 251 250 249 247 246 246 246 247 248 248 249 250 250 250 251 250 250 250 249 249 249
277 277 275 272 269 268 266 264 262 262 262 262 260 262 261 260 256 253 251 251 251 251 250 249 248 249 249 248 246 246 249 249 248 248 249 247 248 249 249 249 248 247 248 247
276 276 275 272 269 265 262 261 261 263 262 263 259 261 262 260 255 252 252 252 253 253 251 250 250 249 249 248 246 245 247 248 247 247 247 246 246 247 248 249 248 248 247 247
278 276 273 272 269 266 262 261 262 266 266 266 262 261 263 261 258 254 253 253 254 254 253 252 252 250 249 247 246 245 247 248 248 248 247 246 247 247 248 248 247 248 247 247
279 278 273 270 267 263 261 261 262 266 266 266 265 264 263 260 259 256 253 253 254 254 252 252 250 249 248 248 248 247 248 248 248 249 249 248 248 249 249 249 248 248 247 247
279 277 273 268 263 261 261 261 261 263 266 268 268 267 265 260 259 258 255 253 254 253 251 250 248 248 249 250 250 247 248 249 250 250 250 249 249 250 249 247 247 248 248 248
277 275 271 266 262 262 261 259 258 260 263 265 267 267 264 262 260 258 254 254 255 253 249 249 248 249 250 251 250 248 248 249 251 251 251 250 250 250 250 248 248 248 250 250
275 272 269 267 264 263 260 258 259 260 261 261 264 266 264 262 260 260 257 256 254 252 249 249 250 250 250 250 249 248 248 248 250 251 251 251 250 250 251 249 249 249 250 251
272 268 266 266 266 263 260 260 261 262 261 260 261 264 263 262 260 259 259 258 256 254 249 248 250 250 249 248 248 248 248 248 249 250 250 251 250 251 252 251 250 251 251 251
270 266 264 266 268 265 262 263 263 262 261 261 261 262 262 262 261 259 258 257 256 255 251 248 249 249 248 249 249 247 248 249 250 250 251 250 250 251 251 252 251 251 252 253
269 265 263 264 264 262 262 263 262 262 262 262 263 262 262 262 260 258 258 257 256 255 253 251 250 249 250 250 249 249 249 249 250 250 250 251 252 252 252 252 253 253 254 255
268 266 264 263 263 263 262 260 261 261 263 263 263 262 261 259 258 257 257 258 257 256 254 253 252 251 251 251 251 249 249 250 250 250 251 252 252 253 252 252 252 253 254 255
267 266 264 264 264 265 262 261 262 264 264 264 265 265 263 259 258 257 257 257 257 256 255 255 252 251 251 251 251 249 250 250 250 250 251 253 254 254 253 253 253 253 253 254
267 265 265 267 265 265 267 264 264 264 263 264 264 264 263 260 257 257 258 258 257 256 256 255 252 252 252 252 253 250 250 251 252 252 253 254 254 255 254 254 254 254 255 256
264 264 266 268 269 269 266 265 266 268 267 266 266 265 263 261 256 257 258 259 258 257 257 255 253 253 252 253 253 251 250 251 252 253 254 254 255 255 254 254 255 255 255 257
263 263 264 267 270 272 270 268 269 271 270 268 268 267 265 262 259 258 258 258 257 257 257 256 254 253 252 252 253 252 251 251 253 254 254 255 256 256 255 255 255 256 256 258
265 265 265 268 271 273 271 270 271 272 274 271 272 271 267 264 261 260 258 258 258 258 257 256 254 253 253 253 252 253 251 253 255 255 254 254 255 255 256 255 255 255 257 260
266 266 267 268 271 273 270 269 269 273 274 274 272 272 269 264 260 260 260 259 259 258 256 256 255 255 253 253 253 253 253 254 255 255 255 254 255 256 255 254 255 256 259 260
266 266 267 268 271 273 270 268 268 270 273 273 272 272 271 265 261 261 262 262 260 257 256 256 257 256 255 255 255 254 254 255 255 256 256 257 257 257 256 256 256 257 259 260
267 268 268 268 269 270 269 267 267 268 270 273 274 274 272 268 263 262 263 264 262 259 257 257 257 257 256 257 256 254 254 256 257 257 257 256 256 257 258 257 257 258 259 261
268 270 271 272 271 269 267 267 267 269 269 272 274 275 274 269 263 261 262 264 264 261 259 258 258 257 257 258 256 255 255 256 257 257 257 257 257 259 259 259 259 258 259 261
268 268 268 270 271 271 269 267 268 271 273 274 274 275 273 268 263 262 263 264 263 261 259 258 259 258 258 257 257 256 257 257 257 257 257 258 258 259 260 260 259 258 258 260
Height
5673 5672 5671 5671 5670 5670 5670 5670 5670 5672 5671 5672 5673 5677 5680 5680 5681 5684 5686 5688 5691 5693 5696 5698 5701 5704 5707 5711 5714 5717 5721 5724 5727 5730 5733 5735 5737 5739 5741 5743 5745 5746 5748 5749
5665 5664 5664 5662 5661 5661 5660 5660 5661 5662 5662 5661 5663 5666 5668 5669 5670 5673 5675 5678 5680 5683 5685 5687 5690 5693 5696 5700 5703 5706 5710 5714 5717 5720 5722 5725 5727 5729 5731 5733 5735 5737 5738 5740
5655 5656 5654 5653 5652 5652 5652 5651 5652 5652 5653 5652 5652 5655 5658 5659 5660 5662 5665 5667 5670 5672 5675 5677 5679 5682 5686 5689 5692 5696 5699 5703 5706 5709 5712 5714 5716 5718 5721 5723 5725 5727 5729 5731
5647 5647 5645 5644 5644 5643 5643 5643 5643 5642 5643 5643 5644 5643 5649 5650 5651 5653 5655 5658 5660 5662 5664 5667 5669 5672 5675 5678 5681 5685 5688 5692 5695 5698 5701 5704 5706 5708 5710 5712 5714 5716 5718 5721
5639 5639 5637 5636 5636 5635 5635 5635 5635 5634 5634 5635 5636 5635 5639 5641 5642 5644 5647 5649 5651 5653 5655 5657 5659 5662 5665 5668 5671 5674 5677 5681 5684 5687 5689 5692 5695 5697 5699 5701 5703 5705 5708 5710
5632 5630 5629 5628 5628 5627 5627 5627 5627 5627 5626 5627 5629 5628 5630 5633 5634 5636 5638 5640 5641 5644 5646 5648 5650 5652 5655 5658 5661 5664 5667 5670 5673 5676 5678 5681 5684 5686 5688 5691 5693 5695 5697 5700
5625 5623 5622 5620 5620 5620 5620 5620 5620 5619 5619 5620 5622 5621 5624 5625 5626 5627 5629 5631 5633 5635 5637 5639 5641 5643 5645 5648 5651 5654 5657 5660 5662 5665 5667 5670 5673 5675 5678 5680 5683 5685 5687 5690
5615 5616 5614 5613 5612 5612 5613 5614 5614 5613 5613 5614 5615 5615 5618 5618 5619 5620 5622 5623 5625 5627 5628 5630 5632 5634 5637 5639 5642 5644 5647 5650 5652 5655 5657 5659 5662 5665 5667 5670 5672 5675 5677 5680
5607 5608 5607 5606 5605 5606 5606 5607 5608 5607 5607 5607 5608 5609 5611 5612 5612 5613 5615 5616 5618 5619 5621 5623 5624 5626 5628 5630 5633 5635 5638 5641 5643 5645 5647 5649 5652 5654 5657 5660 5662 5664 5667 5670
5600 5599 5600 5600 5599 5599 5600 5600 5601 5600 5600 5600 5601 5603 5605 5605 5606 5607 5607 5608 5610 5611 5613 5615 5616 5618 5620 5622 5624 5627 5629 5632 5633 5635 5637 5639 5642 5644 5647 5650 5652 5655 5658 5661
5592 5592 5592 5593 5593 5593 5593 5594 5593 5593 5593 5593 5593 5598 5598 5598 5598 5599 5600 5601 5602 5603 5604 5606 5608 5610 5612 5614 5616 5618 5621 5622 5624 5626 5628 5630 5632 5634 5637 5640 5643 5645 5648 5651
5584 5584 5584 5585 5586 5585 5585 5586 5586 5586 5586 5586 5586 5591 5591 5590 5591 5591 5592 5593 5594 5595 5597 5598 5600 5602 5604 5606 5607 5610 5612 5613 5615 5617 5618 5621 5623 5625 5628 5630 5633 5636 5639 5642
5577 5577 5577 5577 5580 5579 5578 5578 5578 5578 5578 5578 5579 5584 5584 5583 5583 5584 5584 5586 5586 5587 5589 5590 5592 5594 5595 5597 5599 5601 5603 5605 5606 5608 5610 5612 5614 5616 5618 5621 5624 5626 5629 5632
5569 5569 5570 5571 5570 5570 5570 5571 5571 5571 5570 5571 5572 5574 5576 5575 5575 5576 5577 5577 5578 5580 5581 5582 5584 5585 5587 5589 5591 5592 5595 5596 5598 5600 5601 5603 5605 5607 5610 5612 5614 5617 5620 5622
5561 5562 5562 5562 5562 5562 5562 5563 5563 5563 5563 5563 5565 5566 5568 5567 5567 5567 5568 5569 5571 5572 5573 5574 5576 5577 5579 5580 5582 5584 5586 5588 5589 5591 5593 5595 5596 5598 5600 5602 5605 5608 5610 5612
5553 5553 5553 5554 5554 5553 5554 5555 5555 5555 5555 5555 5556 5558 5559 5558 5558 5559 5560 5561 5563 5564 5565 5566 5567 5569 5570 5572 5573 5575 5577 5578 5580 5582 5583 5585 5587 5589 5590 5593 5595 5598 5600 5602
5545 5545 5545 5545 5546 5544 5546 5548 5547 5547 5547 5548 5548 5550 5549 5549 5550 5551 5552 5553 5554 5555 5556 5557 5558 5560 5561 5563 5564 5566 5568 5570 5571 5573 5574 5576 5578 5579 5581 5583 5586 5588 5590 5592
5538 5538 5537 5537 5537 5537 5542 5540 5539 5538 5539 5539 5539 5540 5540 5540 5541 5542 5543 5544 5545 5546 5547 5548 5549 5550 5552 5554 5555 5557 5559 5560 5562 5564 5565 5567 5569 5571 5572 5574 5576 5578 5580 5582
5531 5530 5530 5529 5528 5529 5533 5533 5531 5530 5531 5532 5531 5531 5532 5531 5532 5533 5534 5535 5536 5537 5537 5539 5540 5541 5543 5545 5546 5548 5550 5551 5553 5555 5557 5558 5560 5562 5563 5565 5567 5568 5570 5572
5524 5523 5523 5522 5521 5521 5526 5525 5523 5522 5523 5525 5523 5523 5523 5522 5524 5526 5526 5526 5526 5527 5528 5529 5531 5532 5534 5535 5537 5538 5540 5542 5544 5546 5547 5549 5551 5552 5554 5556 5557 5559 5560 5561
5516 5516 5516 5515 5513 5513 5517 5517 5515 5516 5516 5516 5515 5514 5514 5514 5515 5516 5516 5516 5517 5518 5519 5520 5521 5523 5525 5526 5528 5529 5531 5533 5535 5536 5538 5540 5541 5543 5544 5546 5547 5549 5550 5552
5508 5508 5508 5507 5506 5509 5509 5508 5508 5507 5507 5506 5506 5506 5506 5506 5506 5506 5507 5507 5508 5509 5510 5511 5513 5514 5516 5517 5519 5520 5522 5524 5525 5527 5528 5530 5532 5533 5535 5536 5538 5539 5540 5541
5501 5502 5501 5501 5502 5501 5500 5500 5500 5499 5499 5498 5498 5498 5498 5498 5498 5498 5499 5499 5500 5500 5501 5503 5504 5505 5507 5509 5510 5512 5513 5515 5516 5518 5519 5521 5522 5524 5525 5526 5528 5529 5530 5531
5493 5493 5492 5492 5493 5493 5492 5492 5492 5491 5491 5490 5490 5490 5490 5490 5490 5490 5491 5491 5491 5492 5493 5494 5495 5497 5499 5500 5502 5503 5505 5506 5508 5509 5510 5511 5513 5514 5515 5516 5518 5519 5520 5521
5485 5484 5484 5484 5485 5484 5484 5484 5484 5483 5483 5482 5482 5482 5481 5481 5482 5482 5483 5483 5483 5484 5485 5486 5487 5488 5490 5492 5493 5494 5496 5497 5499 5500 5501 5502 5503 5505 5505 5506 5507 5509 5510 5511
5478 5477 5477 5477 5477 5476 5477 5477 5476 5476 5475 5475 5474 5474 5474 5473 5474 5474 5475 5475 5475 5476 5476 5477 5478 5480 5481 5483 5484 5485 5487 5488 5489 5491 5492 5493 5494 5495 5496 5497 5498 5498 5500 5501